Regional Weather Roundup
Issued by NWS

Home | Current Version | Previous Version | Text Only | Print | Product List | Glossary On
Versions: 1 2 3 4 5 6 7 8 9 10 11 12 13 14 15 16 17 18 19 20 21 22 23 24 25 26 27 28 29 30 31 32 33 34 35 36 37 38 39 40 41 42 43 44 45 46 47 48 49 50
000
ASUS43 KMKX 221600
RWRWI

WISCONSIN REGIONAL WEATHER ROUNDUP
NATIONAL WEATHER SERVICE MILWAUKEE/SULLIVAN WI
1100 AM CDT FRI MAY 22 2015

NOTE: "FAIR" INDICATES FEW OR NO CLOUDS BELOW 12,000 FEET WITH NO
SIGNIFICANT WEATHER AND/OR OBSTRUCTIONS TO VISIBILITY.

WIZ001-002-006>008-014>016-023>028-221700-
NORTHWEST WISCONSIN

CITY           SKY/WX    TMP DP  RH WIND       PRES   REMARKS
SUPERIOR ARPT  SUNNY     54  34  48 CALM      30.23F
ASHLAND        SUNNY     62  31  31 S3        30.22F
HAYWARD        SUNNY     63  28  26 N8        30.22F
SIREN          SUNNY     64  30  27 N3        30.22S
CUMBERLAND     SUNNY     59  27  29 CALM      30.22S
RICE LAKE      SUNNY     63  28  26 W6        30.23S
CHETEK         SUNNY     61  32  33 CALM      30.22S
LADYSMITH      SUNNY     60  32  34 CALM      30.23F
EAU CLAIRE     NOT AVBL
MENOMONIE      SUNNY     64  29  27 CALM      30.21S
NEW RICHMOND   SUNNY     64  31  28 CALM      30.22S
OSCEOLA        SUNNY     64  33  31 N5        30.24S
$$

WIZ003>005-009-010-017-018-221700-
NORTH CENTRAL WISCONSIN

CITY           SKY/WX    TMP DP  RH WIND       PRES   REMARKS
MANITOWISH WTR SUNNY     58  28  31 N5        30.21S
ARBOR VITAE    SUNNY     59  28  30 N9        30.21S
WOODRUFF       SUNNY     59  28  30 N9        30.21S
RHINELANDER    SUNNY     60  26  27 NW10G18   30.21F
EAGLE RIVER    SUNNY     58  20  22 N7        30.21S
LAND O LAKES   SUNNY     58  19  21 N12G18    30.21F
PHILLIPS       SUNNY     58  30  34 NE8       30.21S
TOMAHAWK       SUNNY     59  29  31 W7        30.22F
MEDFORD        SUNNY     58  32  37 CALM      30.21F
MERRILL        SUNNY     59  32  36 NW3       30.22F
$$

WIZ029-030-035-036-043>047-221700-
CENTRAL WISCONSIN

CITY           SKY/WX    TMP DP  RH WIND       PRES   REMARKS
WAUSAU         SUNNY     61  30  31 VRB3      30.20F
MOSINEE        SUNNY     61  32  33 VRB5      30.23S
MARSHFIELD     SUNNY     62  35  36 SE3       30.21F
STEVENS POINT  SUNNY     58  31  35 W3        30.22F
WAUPACA        SUNNY     61  29  29 S5        30.23F
WAUTOMA        NOT AVBL
WISC RAPIDS    SUNNY     63  27  25 N5        30.23S
CAMP DOUGLAS   NOT AVBL
$$

WIZ011>013-019>022-031-037>040-048>050-221700-
NORTHEAST WISCONSIN

CITY           SKY/WX    TMP DP  RH WIND       PRES   REMARKS
ANTIGO         SUNNY     57  33  40 NW8       30.21F
SHAWANO        SUNNY     59  31  33 SW3       30.22F
OCONTO         SUNNY     55  32  40 SE7       30.23S
STURGEON BAY   SUNNY     54  21  28 NW3       30.26F
GREEN BAY      SUNNY     60  30  32 CALM      30.23F
MANITOWOC      NOT AVBL
APPLETON       SUNNY     57  30  35 CALM      30.23F
CLINTONVILLE   SUNNY     59  30  33 W3        30.22F
OSHKOSH        SUNNY     58  32  37 NE8       30.23S
$$

WIZ032>034-041-042-053>061-221700-
SOUTHWEST WISCONSIN

CITY           SKY/WX    TMP DP  RH WIND       PRES   REMARKS
LA CROSSE      SUNNY     66  44  45 S8        30.21R
SPARTA         SUNNY     64  33  31 CALM      30.21R
VIROQUA        SUNNY     62  38  40 S6        30.22R
BOSCOBEL       SUNNY     69  40  34 VRB3      30.22R
PRAIRIE DU CHI SUNNY     64  44  47 CALM      30.21R
PLATTEVILLE    SUNNY     63  40  42 E3        30.22R
$$

WIZ056-057-062-063-064-067-068-221700-
SOUTH CENTRAL WISCONSIN

CITY           SKY/WX    TMP DP  RH WIND       PRES   REMARKS
REEDSBURG      SUNNY     60  36  40 CALM      30.21S
BARABOO/DELLS  SUNNY     61  30  31 CALM      30.22S
LONE ROCK      NOT AVBL
MINERAL POINT  SUNNY     64  34  32 SE6       30.22R
MADISON        MOSUNNY   62  34  35 CALM      30.22R
MIDDLETON      SUNNY     63  27  25 CALM      30.22S
WATERTOWN      SUNNY     60  33  36 SE3       30.22S
MONROE         SUNNY     61  36  39 SE5       30.22R
JANESVILLE     SUNNY     64  30  27 SE6       30.21R
$$

WIZ051-052-058>065-066-070>072-221700-
SOUTHEAST WISCONSIN

CITY           SKY/WX    TMP DP  RH WIND       PRES   REMARKS
MILWAUKEE      SUNNY     54  31  41 NE10      30.25R
WAUKESHA       SUNNY     57  28  33 SE5       30.23S
MILWAUKEE/TIMM SUNNY     57  21  24 NE7       30.25R
RACINE         SUNNY     54  32  43 NE7       30.26R
BURLINGTON     SUNNY     59  30  32 E7        30.22S
KENOSHA        SUNNY     58  28  32 E7        30.25R
FOND DU LAC    SUNNY     61  30  31 NE3       30.23S
SHEBOYGAN      SUNNY     58  33  39 E6        30.24S
WEST BEND      SUNNY     59  27  29 SE5       30.23S
JUNEAU         SUNNY     58  32  37 E7        30.24S
$$

LSZ147-162-221700-
LAKE SUPERIOR

STATION/POSITION TIME  TEMP    WIND        PRES    WAVE
                       AIR SEA DIR/SP/G            HT/PER
                 (UTC) (F)     (DEG/KT/KT) (MB)    (FT/S)
W MID LAKE BUOY  1450   37 36   60/  6/  8   N/A     0
DEVILS ISLAND    1500   41      80/  3/  3   N/A
PORT WING        1500   43      20/  4/  4   N/A
SAXON HARBOR     1500   49        CALM       N/A
$$

LMZ867-665-643>646-221700-
LAKE MICHIGAN

STATION/POSITION TIME  TEMP    WIND        PRES    WAVE
                       AIR SEA DIR/SP/G            HT/PER
                 (UTC) (F)     (DEG/KT/KT) (MB)    (FT/S)
CHAMBERS ISLAND  1500   46      20/  6/  7   N/A
N MID LAKE BUOY  1450   38 36   50/  8/ 10   N/A     1
NORTHPORT PIER   1500   45      80/  7/  9   N/A
SISTER BAY       1502   51     340/  7/  8   N/A
KEWAUNEE LAKESHO 1500   47      80/  6/ 11   N/A
SHEBOYGAN LAKESH 1500           60/  4/  4   N/A
PORT WASHINGTON  1500   50      50/  4/  6   N/A
ATWATER BUOY     1500   44 44   10/  8/ 10   N/A
MILWAUKEE LAKESH 1500   46      30/ 10/ 11   N/A
S MID LAKE BUOY  1450   41 38  330/  6/  8   N/A     1
KENOSHA   LAKESH 1500   47      30/ 11/ 13   N/A
$$

TC  - TEMPERATURE IN CELSIUS
VSB - VISIBILITY IN STATUTE MILES
WCI - WIND CHILL INDEX
HX  - HEAT INDEX



USA.gov is the U.S. government's official web portal to all federal, state and local government web resources and services.